VJT580 SBBR-SBRJ

Flight info

Callsign VJT580
Flight time 1h 19m
Altitude 45000
Route GEPMO UZ6 TOKIM
Aircraft C700/M-SBDGHM1RWXY/LB2

Departure

Time 2026-05-04 15:17
Airport Presidente Juscelino Kubitschek International Airport (SBBR)

Arrival

Time 2026-05-04 16:36
Airport Santos Dumont Airport (SBRJ)
Time Latitude Longitude Altitude Speed Heading
2026-05-04 15:00 -15.87369 -47.91883 3459 ft 0 kts 118°
2026-05-04 15:07 -15.87366 -47.91889 3459 ft 2 kts 122°
2026-05-04 15:08 -15.87356 -47.91902 3459 ft 2 kts 134°
2026-05-04 15:08 -15.87343 -47.91913 3459 ft 2 kts 151°
2026-05-04 15:08 -15.87331 -47.91920 3459 ft 1 kts 115°
2026-05-04 15:08 -15.87331 -47.91921 3459 ft 0 kts 108°
2026-05-04 15:11 -15.87330 -47.91917 3459 ft 2 kts 80°
2026-05-04 15:11 -15.87325 -47.91851 3459 ft 16 kts 90°
2026-05-04 15:11 -15.87316 -47.91722 3459 ft 20 kts 86°
2026-05-04 15:12 -15.87361 -47.91665 3459 ft 13 kts 175°
2026-05-04 15:12 -15.87477 -47.91657 3459 ft 20 kts 178°
2026-05-04 15:12 -15.87553 -47.91652 3464 ft 12 kts 175°
2026-05-04 15:12 -15.87645 -47.91646 3464 ft 15 kts 175°
2026-05-04 15:13 -15.87736 -47.91683 3464 ft 17 kts 257°
2026-05-04 15:13 -15.87746 -47.91816 3464 ft 20 kts 265°
2026-05-04 15:13 -15.87756 -47.91974 3464 ft 24 kts 267°
2026-05-04 15:13 -15.87767 -47.92158 3465 ft 27 kts 266°
2026-05-04 15:14 -15.87780 -47.92365 3465 ft 30 kts 266°
2026-05-04 15:14 -15.87796 -47.92593 3465 ft 33 kts 268°
2026-05-04 15:14 -15.87811 -47.92839 3466 ft 35 kts 266°
2026-05-04 15:14 -15.87828 -47.93100 3466 ft 35 kts 266°
2026-05-04 15:15 -15.87841 -47.93301 3467 ft 23 kts 266°
2026-05-04 15:15 -15.87865 -47.93365 3468 ft 7 kts 216°
2026-05-04 15:15 -15.87906 -47.93374 3468 ft 5 kts 172°
2026-05-04 15:16 -15.87972 -47.93287 3474 ft 19 kts 111°
2026-05-04 15:16 -15.88009 -47.93144 3472 ft 22 kts 100°
2026-05-04 15:16 -15.87996 -47.92886 3470 ft 79 kts 86°
2026-05-04 15:17 -15.87938 -47.91986 3543 ft 162 kts 86°
2026-05-04 15:17 -15.88899 -47.89587 4792 ft 214 kts 158°
2026-05-04 15:17 -15.90346 -47.89357 5435 ft 217 kts 177°
2026-05-04 15:18 -15.91860 -47.89089 6093 ft 233 kts 165°
2026-05-04 15:18 -15.93543 -47.88544 6775 ft 262 kts 162°
2026-05-04 15:18 -15.95344 -47.87967 7453 ft 276 kts 164°
2026-05-04 15:19 -15.99091 -47.86840 8775 ft 286 kts 164°
2026-05-04 15:19 -16.01011 -47.86247 9424 ft 289 kts 164°
2026-05-04 15:19 -16.04990 -47.85028 10717 ft 325 kts 164°
2026-05-04 15:20 -16.07134 -47.84076 11361 ft 345 kts 149°
2026-05-04 15:20 -16.09078 -47.82532 12009 ft 356 kts 139°
2026-05-04 15:20 -16.10946 -47.80801 12660 ft 362 kts 139°
2026-05-04 15:20 -16.12848 -47.79055 13305 ft 367 kts 139°
2026-05-04 15:21 -16.14775 -47.77296 13949 ft 370 kts 139°
2026-05-04 15:21 -16.16700 -47.75542 14575 ft 374 kts 139°
2026-05-04 15:21 -16.20633 -47.71940 15837 ft 380 kts 139°
2026-05-04 15:22 -16.22630 -47.70113 16467 ft 384 kts 139°
2026-05-04 15:22 -16.24648 -47.68267 17097 ft 388 kts 139°
2026-05-04 15:22 -16.28739 -47.64520 18353 ft 395 kts 139°
2026-05-04 15:23 -16.30814 -47.62618 18983 ft 399 kts 139°
2026-05-04 15:23 -16.32907 -47.60703 19606 ft 402 kts 139°
2026-05-04 15:23 -16.35015 -47.58768 20231 ft 406 kts 139°
2026-05-04 15:23 -16.37143 -47.56818 20857 ft 410 kts 139°
2026-05-04 15:24 -16.41467 -47.52851 22109 ft 418 kts 139°
2026-05-04 15:24 -16.45847 -47.48830 23353 ft 426 kts 139°
2026-05-04 15:25 -16.48079 -47.46779 23978 ft 430 kts 139°
2026-05-04 15:25 -16.50341 -47.44702 24605 ft 434 kts 139°
2026-05-04 15:25 -16.52620 -47.42608 25232 ft 438 kts 139°
2026-05-04 15:26 -16.57237 -47.38363 26482 ft 447 kts 139°
2026-05-04 15:26 -16.59552 -47.36232 27101 ft 451 kts 139°
2026-05-04 15:26 -16.64297 -47.31865 28349 ft 459 kts 139°
2026-05-04 15:27 -16.66707 -47.29647 28980 ft 464 kts 139°
2026-05-04 15:27 -16.71593 -47.25143 30225 ft 473 kts 139°
2026-05-04 15:28 -16.76570 -47.20556 31474 ft 481 kts 139°
2026-05-04 15:28 -16.79083 -47.18237 32101 ft 481 kts 139°
2026-05-04 15:28 -16.84132 -47.13659 33336 ft 480 kts 143°
2026-05-04 15:29 -16.86958 -47.11812 33948 ft 478 kts 152°
2026-05-04 15:30 -16.98901 -47.05949 36411 ft 473 kts 155°
2026-05-04 15:30 -17.07783 -47.01602 38244 ft 466 kts 155°
2026-05-04 15:31 -17.13602 -46.98749 39465 ft 457 kts 155°
2026-05-04 15:31 -17.16470 -46.97343 40063 ft 452 kts 155°
2026-05-04 15:32 -17.24807 -46.93251 41854 ft 433 kts 155°
2026-05-04 15:32 -17.30160 -46.90622 43041 ft 417 kts 155°
2026-05-04 15:33 -17.35297 -46.88098 44210 ft 398 kts 155°
2026-05-04 15:34 -17.42986 -46.84317 44293 ft 415 kts 155°
2026-05-04 15:34 -17.50993 -46.80374 44374 ft 431 kts 155°
2026-05-04 15:35 -17.59217 -46.76320 44479 ft 443 kts 155°
2026-05-04 15:36 -17.67707 -46.72134 44589 ft 455 kts 155°
2026-05-04 15:36 -17.73485 -46.69280 44661 ft 462 kts 155°
2026-05-04 15:37 -17.78347 -46.66878 44727 ft 465 kts 155°
2026-05-04 15:37 -17.85161 -46.63508 44792 ft 465 kts 155°
2026-05-04 15:38 -17.90064 -46.61082 44839 ft 465 kts 155°
2026-05-04 15:38 -17.95881 -46.58203 44891 ft 464 kts 155°
2026-05-04 15:39 -18.01732 -46.55303 44936 ft 464 kts 155°
2026-05-04 15:40 -18.10510 -46.50950 44995 ft 468 kts 155°
2026-05-04 15:40 -18.16463 -46.47994 45001 ft 476 kts 155°
2026-05-04 15:41 -18.22476 -46.45008 45012 ft 485 kts 155°
2026-05-04 15:41 -18.28606 -46.41959 45013 ft 488 kts 155°
2026-05-04 15:42 -18.34746 -46.38905 45011 ft 488 kts 155°
2026-05-04 15:42 -18.40886 -46.35847 45009 ft 488 kts 155°
2026-05-04 15:43 -18.47032 -46.32784 45012 ft 489 kts 155°
2026-05-04 15:43 -18.53187 -46.29714 45012 ft 490 kts 155°
2026-05-04 15:44 -18.59317 -46.26653 45010 ft 490 kts 155°
2026-05-04 15:44 -18.65475 -46.23578 45012 ft 489 kts 155°
2026-05-04 15:45 -18.71623 -46.20503 45010 ft 489 kts 155°
2026-05-04 15:45 -18.77774 -46.17425 45009 ft 488 kts 155°
2026-05-04 15:46 -18.83911 -46.14351 45010 ft 488 kts 155°
2026-05-04 15:46 -18.90058 -46.11268 45010 ft 488 kts 155°
2026-05-04 15:47 -18.96169 -46.08204 45009 ft 488 kts 155°
2026-05-04 15:47 -19.02306 -46.05122 45009 ft 488 kts 155°
2026-05-04 15:48 -19.08444 -46.02038 45009 ft 488 kts 155°
2026-05-04 15:48 -19.17629 -45.97298 45008 ft 489 kts 150°
2026-05-04 15:49 -19.23526 -45.93687 45009 ft 489 kts 150°
2026-05-04 15:49 -19.29410 -45.90149 45010 ft 490 kts 150°
2026-05-04 15:50 -19.35315 -45.86555 45009 ft 488 kts 150°
2026-05-04 15:50 -19.41215 -45.82984 45009 ft 488 kts 150°
2026-05-04 15:51 -19.47105 -45.79402 45010 ft 488 kts 150°
2026-05-04 15:51 -19.52972 -45.75784 45010 ft 487 kts 149°
2026-05-04 15:52 -19.58798 -45.72082 45011 ft 488 kts 149°
2026-05-04 15:52 -19.64636 -45.68364 44973 ft 488 kts 149°
2026-05-04 15:53 -19.67525 -45.66515 44702 ft 480 kts 149°
2026-05-04 15:53 -19.70329 -45.64731 44374 ft 471 kts 149°
2026-05-04 15:53 -19.73114 -45.62959 44037 ft 463 kts 149°
2026-05-04 15:53 -19.75848 -45.61210 43705 ft 456 kts 149°
2026-05-04 15:54 -19.78559 -45.59478 43376 ft 452 kts 149°
2026-05-04 15:54 -19.81254 -45.57757 43051 ft 454 kts 149°
2026-05-04 15:54 -19.83975 -45.56019 42724 ft 458 kts 149°
2026-05-04 15:54 -19.86711 -45.54268 42395 ft 460 kts 149°
2026-05-04 15:55 -19.89420 -45.52535 42067 ft 460 kts 149°
2026-05-04 15:55 -19.92160 -45.50782 41735 ft 459 kts 149°
2026-05-04 15:55 -19.94892 -45.49034 41402 ft 458 kts 149°
2026-05-04 15:55 -19.97622 -45.47284 41070 ft 458 kts 149°
2026-05-04 15:56 -20.00355 -45.45534 40739 ft 459 kts 149°
2026-05-04 15:56 -20.03093 -45.43778 40406 ft 460 kts 149°
2026-05-04 15:56 -20.05836 -45.42020 40070 ft 460 kts 149°
2026-05-04 15:56 -20.08580 -45.40260 39740 ft 460 kts 149°
2026-05-04 15:57 -20.11325 -45.38497 39406 ft 460 kts 149°
2026-05-04 15:57 -20.14060 -45.36726 39073 ft 461 kts 148°
2026-05-04 15:57 -20.16784 -45.34926 38739 ft 461 kts 148°
2026-05-04 15:57 -20.19514 -45.33126 38410 ft 462 kts 148°
2026-05-04 15:58 -20.22256 -45.31336 38070 ft 462 kts 149°
2026-05-04 15:58 -20.24994 -45.29549 37735 ft 461 kts 148°
2026-05-04 15:58 -20.27725 -45.27753 37401 ft 462 kts 148°
2026-05-04 15:58 -20.30457 -45.25957 37067 ft 461 kts 148°
2026-05-04 15:59 -20.33154 -45.24189 36737 ft 461 kts 148°
2026-05-04 15:59 -20.35887 -45.22396 36399 ft 461 kts 148°
2026-05-04 15:59 -20.38614 -45.20604 36070 ft 460 kts 148°
2026-05-04 15:59 -20.41344 -45.18809 35736 ft 462 kts 148°
2026-05-04 16:00 -20.44082 -45.17009 35400 ft 463 kts 148°
2026-05-04 16:00 -20.46829 -45.15202 35064 ft 464 kts 148°
2026-05-04 16:00 -20.49575 -45.13396 34732 ft 463 kts 148°
2026-05-04 16:00 -20.52317 -45.11590 34393 ft 464 kts 148°
2026-05-04 16:01 -20.55070 -45.09777 34055 ft 465 kts 148°
2026-05-04 16:01 -20.57828 -45.07959 33719 ft 467 kts 148°
2026-05-04 16:01 -20.60596 -45.06136 33379 ft 467 kts 148°
2026-05-04 16:01 -20.63365 -45.04309 33040 ft 468 kts 148°
2026-05-04 16:02 -20.66146 -45.02473 32700 ft 469 kts 148°
2026-05-04 16:02 -20.68919 -45.00643 32358 ft 469 kts 148°
2026-05-04 16:02 -20.74440 -44.96997 31685 ft 470 kts 148°
2026-05-04 16:03 -20.77229 -44.95160 31343 ft 471 kts 148°
2026-05-04 16:03 -20.80036 -44.93334 31001 ft 472 kts 149°
2026-05-04 16:03 -20.82841 -44.91506 30659 ft 472 kts 149°
2026-05-04 16:03 -20.85646 -44.89665 30317 ft 473 kts 148°
2026-05-04 16:04 -20.88453 -44.87819 29973 ft 473 kts 148°
2026-05-04 16:04 -20.94049 -44.84155 29290 ft 469 kts 149°
2026-05-04 16:04 -20.96826 -44.82333 28952 ft 466 kts 148°
2026-05-04 16:05 -20.99577 -44.80523 28614 ft 463 kts 148°
2026-05-04 16:05 -21.02313 -44.78727 28279 ft 460 kts 148°
2026-05-04 16:05 -21.07752 -44.75174 27616 ft 456 kts 149°
2026-05-04 16:06 -21.10485 -44.73454 27286 ft 454 kts 150°
2026-05-04 16:06 -21.17656 -44.68881 26414 ft 448 kts 149°
2026-05-04 16:07 -21.21190 -44.66620 25989 ft 445 kts 149°
2026-05-04 16:07 -21.29016 -44.61403 25030 ft 438 kts 149°
2026-05-04 16:08 -21.31613 -44.59705 24714 ft 436 kts 149°
2026-05-04 16:08 -21.39298 -44.54610 23774 ft 430 kts 148°
2026-05-04 16:09 -21.44334 -44.51280 23158 ft 426 kts 148°
2026-05-04 16:09 -21.49349 -44.47952 22539 ft 422 kts 148°
2026-05-04 16:10 -21.54319 -44.44656 21937 ft 418 kts 148°
2026-05-04 16:11 -21.61693 -44.39758 21034 ft 412 kts 148°
2026-05-04 16:11 -21.64130 -44.38140 20737 ft 410 kts 148°
2026-05-04 16:12 -21.71376 -44.33320 19851 ft 406 kts 148°
2026-05-04 16:12 -21.78431 -44.28620 18987 ft 373 kts 148°
2026-05-04 16:13 -21.82572 -44.25861 18468 ft 334 kts 148°
2026-05-04 16:13 -21.86469 -44.23260 17991 ft 328 kts 148°
2026-05-04 16:14 -21.90362 -44.20663 17522 ft 329 kts 148°
2026-05-04 16:14 -21.94391 -44.18397 17049 ft 327 kts 159°
2026-05-04 16:15 -22.00626 -44.15574 16350 ft 324 kts 158°
2026-05-04 16:16 -22.04777 -44.13715 15884 ft 321 kts 158°
2026-05-04 16:16 -22.10906 -44.10947 15189 ft 316 kts 158°
2026-05-04 16:17 -22.14949 -44.09120 14737 ft 313 kts 158°
2026-05-04 16:18 -22.20956 -44.06405 14057 ft 310 kts 158°
2026-05-04 16:18 -22.22944 -44.05505 13832 ft 309 kts 157°
2026-05-04 16:19 -22.28852 -44.02831 13167 ft 307 kts 158°
2026-05-04 16:19 -22.32782 -44.01052 12722 ft 305 kts 158°
2026-05-04 16:20 -22.38598 -43.98415 12066 ft 300 kts 158°
2026-05-04 16:20 -22.42438 -43.96674 11634 ft 298 kts 157°
2026-05-04 16:21 -22.48140 -43.94085 10984 ft 295 kts 158°
2026-05-04 16:22 -22.51893 -43.92381 10564 ft 293 kts 158°
2026-05-04 16:22 -22.57516 -43.89825 9930 ft 291 kts 158°
2026-05-04 16:23 -22.63086 -43.87290 9161 ft 287 kts 158°
2026-05-04 16:24 -22.69775 -43.84244 8384 ft 283 kts 158°
2026-05-04 16:25 -22.73392 -43.82594 7975 ft 281 kts 158°
2026-05-04 16:26 -22.80465 -43.79102 7143 ft 279 kts 137°
2026-05-04 16:26 -22.82982 -43.73524 6536 ft 276 kts 119°
2026-05-04 16:27 -22.84954 -43.69970 6177 ft 274 kts 120°
2026-05-04 16:28 -22.87744 -43.64582 5842 ft 271 kts 120°
2026-05-04 16:28 -22.90554 -43.59205 5843 ft 273 kts 120°
2026-05-04 16:29 -22.93928 -43.51886 5833 ft 274 kts 99°
2026-05-04 16:30 -22.92797 -43.46132 5166 ft 253 kts 64°
2026-05-04 16:31 -22.91366 -43.42737 4574 ft 243 kts 65°
2026-05-04 16:31 -22.89299 -43.37869 3724 ft 232 kts 65°
2026-05-04 16:32 -22.87513 -43.33066 2889 ft 227 kts 71°
2026-05-04 16:33 -22.86497 -43.29927 2502 ft 218 kts 70°
2026-05-04 16:33 -22.85560 -43.26814 2000 ft 215 kts 81°
2026-05-04 16:34 -22.85858 -43.23719 1513 ft 201 kts 98°
2026-05-04 16:34 -22.86046 -43.22304 1300 ft 174 kts 98°
2026-05-04 16:35 -22.86623 -43.18646 729 ft 161 kts 117°
2026-05-04 16:35 -22.89052 -43.16499 301 ft 144 kts 145°
2026-05-04 16:36 -22.89951 -43.16298 241 ft 145 kts 198°
2026-05-04 16:36 -22.91398 -43.16261 14 ft 29 kts 177°
2026-05-04 16:37 -22.91523 -43.16332 14 ft 10 kts 268°
2026-05-04 16:37 -22.91502 -43.16402 17 ft 10 kts 317°
2026-05-04 16:37 -22.91350 -43.16503 16 ft 17 kts 356°
2026-05-04 16:38 -22.91106 -43.16524 16 ft 11 kts 343°
2026-05-04 16:39 -22.91051 -43.16610 18 ft 0 kts 266°